Wind_Speed
9 9 9 8 8 8 8 9 9 9 9 9 9 10 10 10 10 10 11 11 12 12 13 13 13 12 13 14 13 14 14 14 14 14 15 15 16 16 16 16 16 15 15
10 10 10 9 9 9 9 9 10 10 10 10 10 10 10 10 11 11 11 12 12 12 12 13 13 13 14 15 14 15 15 15 15 16 15 16 16 16 17 17 17 16 16
11 12 11 10 10 10 10 10 11 11 11 11 11 11 11 11 12 12 13 13 13 13 14 13 12 13 14 15 15 16 16 17 17 17 17 17 17 17 17 17 17 17 17
12 12 12 12 11 11 11 11 11 11 12 12 12 12 12 12 12 13 13 14 14 15 14 14 14 15 15 15 16 17 17 18 18 18 18 18 18 18 18 18 18 18 18
14 13 13 13 12 12 12 12 12 12 12 12 12 13 13 13 13 14 14 15 15 16 16 15 15 16 16 16 17 17 18 18 18 19 18 18 19 19 18 18 18 18 18
14 14 14 14 13 13 13 13 13 12 13 13 13 13 14 14 14 15 15 16 16 16 16 16 16 17 17 18 18 18 19 19 19 19 20 20 20 19 19 19 19 19 19
15 15 14 15 14 14 14 14 14 14 14 13 14 14 14 15 15 15 16 16 17 18 18 18 18 18 19 19 19 20 20 20 21 21 20 20 20 20 19 19 19 19 19
15 15 15 15 15 15 15 15 15 15 15 15 15 15 15 16 16 16 16 17 18 18 19 19 19 19 19 20 21 21 22 21 21 21 21 20 20 20 20 20 20 19 19
16 16 16 16 17 16 16 16 16 16 16 16 16 17 16 17 17 17 17 18 19 19 19 19 20 20 21 21 21 22 22 22 22 22 21 21 21 21 21 20 20 20 19
16 17 17 17 17 16 17 17 17 17 18 18 18 18 18 18 19 18 19 19 19 20 20 21 21 21 22 23 23 23 23 23 22 22 22 22 22 22 21 21 21 21 21
18 18 18 18 18 19 19 19 19 19 19 19 19 19 19 20 20 20 20 21 21 21 21 21 22 22 23 23 23 23 23 23 23 24 24 24 24 23 24 23 23 23 23
18 19 19 19 20 20 20 20 20 19 20 20 20 20 20 21 21 22 22 22 22 22 23 23 23 23 24 24 24 25 24 24 25 25 25 25 25 25 25 25 24 24 24
21 21 21 21 21 21 21 22 22 21 20 20 21 21 21 22 22 23 23 23 24 24 24 25 25 25 25 26 26 26 26 26 26 26 26 26 26 26 26 26 26 25 25
22 21 21 22 22 22 23 23 23 23 22 22 22 22 23 23 23 24 24 24 24 25 26 26 27 27 27 28 28 28 28 27 27 27 27 26 26 26 26 27 26 26 26
22 22 22 22 23 23 24 24 24 24 24 24 24 24 24 25 24 25 25 25 26 26 27 27 27 28 28 28 28 29 29 28 28 28 28 28 28 28 28 27 27 27 28
24 24 23 23 23 23 24 24 24 25 25 25 25 25 25 25 25 25 26 26 27 27 28 28 28 28 29 29 29 29 29 29 29 29 28 28 29 28 28 28 28 29 29
24 24 23 24 24 24 24 25 25 25 25 25 25 26 26 26 26 26 27 28 28 29 29 29 29 29 30 30 30 29 29 30 30 30 30 30 29 29 29 28 28 29 30
25 25 25 25 25 25 25 25 25 26 26 26 27 27 27 27 27 27 28 29 30 31 30 30 30 30 30 30 30 29 29 30 30 29 30 30 30 30 29 29 30 30 29
25 25 25 25 25 25 26 26 26 26 26 26 27 27 27 28 28 29 29 30 31 31 31 31 30 30 30 30 29 29 29 29 29 29 29 30 30 30 30 30 30 30 29
25 26 27 26 26 27 27 27 27 27 27 27 27 27 28 29 29 30 30 30 30 30 30 30 30 30 29 29 29 29 29 29 29 29 29 29 30 30 30 31 31 31 30
27 27 28 27 28 28 28 28 28 28 28 28 28 28 29 29 30 30 31 31 30 30 30 30 30 30 30 29 30 29 29 30 30 30 30 30 30 30 31 31 32 32 32
27 28 28 28 28 28 29 29 29 29 29 29 29 29 29 29 29 30 31 31 31 31 31 30 30 30 30 31 31 31 30 30 30 31 31 31 31 31 31 31 31 32 33
27 28 29 29 29 29 29 29 29 29 30 30 30 30 30 30 30 30 30 31 31 31 31 31 31 31 31 31 31 32 31 31 31 31 31 31 31 31 31 31 32 32 32
27 28 29 30 30 30 30 30 30 31 31 30 30 30 30 31 31 31 32 32 32 32 31 31 32 31 32 32 32 32 32 32 32 32 32 31 31 31 31 31 31 31 32
28 29 29 30 30 31 31 31 31 32 31 30 30 31 31 32 32 32 32 32 32 32 32 32 32 32 32 32 32 32 31 31 31 32 31 31 32 31 31 31 30 31 31
30 31 31 31 31 32 32 31 31 32 31 31 31 32 32 33 33 33 33 32 32 32 32 31 31 32 32 32 31 31 31 31 31 31 32 32 32 32 31 30 30 30 31
Wind_Direction
273 276 276 272 274 278 283 285 288 292 293 291 289 290 290 292 293 295 296 294 292 290 286 283 280 279 281 282 283 283 283 284 283 283 283 284 284 285 285 284 284 282 279
270 273 273 273 278 282 284 284 287 290 291 290 288 287 288 289 290 290 291 294 295 295 294 289 281 281 282 280 281 283 284 284 284 283 283 285 286 286 286 286 285 283 281
268 272 270 270 275 280 282 283 285 287 289 288 286 285 288 290 289 289 288 288 289 292 293 291 288 288 286 284 282 281 283 283 284 284 284 284 285 286 285 284 283 282 281
268 270 270 269 271 275 279 282 285 287 287 288 286 285 285 288 288 288 287 287 288 289 289 288 287 288 288 286 283 284 284 284 284 283 283 283 283 284 284 283 281 279 279
265 267 269 269 270 271 274 280 284 287 287 285 285 286 286 288 288 287 287 288 289 290 290 288 287 286 285 285 285 287 286 284 283 283 283 283 283 282 282 282 281 280 278
267 268 268 267 268 269 272 276 279 282 285 285 286 287 288 289 290 289 288 291 291 291 291 290 287 285 284 284 284 286 286 285 284 284 283 282 282 282 280 279 278 279 278
269 268 266 266 267 269 270 272 275 277 281 285 287 288 288 290 291 290 289 291 293 293 291 288 286 285 284 284 285 285 286 285 285 284 284 282 281 281 280 279 278 277 275
266 267 266 265 267 269 270 271 272 275 278 282 284 286 289 290 291 291 291 291 293 294 292 288 286 285 286 287 287 287 287 286 285 284 284 283 281 280 280 280 278 276 273
265 267 267 264 267 269 271 273 274 274 276 279 281 283 286 291 291 290 290 292 293 293 293 291 288 286 286 287 287 288 288 286 285 285 283 281 279 279 279 279 279 276 273
264 266 266 263 266 268 270 273 275 275 275 277 280 283 284 288 290 288 288 289 291 291 290 290 289 287 286 286 285 287 287 285 284 283 282 280 278 278 278 279 278 276 274
265 268 269 267 266 269 271 273 274 275 275 275 278 281 284 286 288 288 287 288 290 291 290 288 289 288 287 287 287 286 285 285 284 283 281 280 278 277 277 278 278 276 274
268 270 272 271 271 271 272 274 273 275 276 276 278 280 283 285 285 285 285 286 289 290 290 289 289 288 287 287 286 286 285 284 282 282 283 281 278 277 277 278 278 276 274
270 271 271 272 273 273 273 274 275 276 276 278 279 281 283 285 286 286 285 284 286 287 288 289 289 288 287 287 286 285 285 284 281 282 282 282 281 279 278 277 276 274 273
272 272 273 273 273 273 273 273 274 275 276 278 281 282 284 286 286 286 286 285 285 286 287 287 288 287 287 287 286 285 284 283 281 281 282 282 281 280 279 279 277 275 275
270 272 272 272 270 270 271 273 272 273 275 277 280 282 284 284 285 286 286 285 286 286 287 287 286 286 286 286 286 285 284 283 281 280 280 280 281 280 280 279 277 276 275
271 272 271 271 269 269 271 272 272 273 274 276 279 282 284 283 284 285 286 286 286 287 287 286 286 286 286 287 286 285 284 281 280 280 280 280 280 279 280 278 277 275 276
272 273 273 271 270 269 271 272 272 274 276 277 279 282 283 283 283 284 285 286 287 287 287 287 287 287 287 287 286 285 284 282 281 280 279 279 280 279 279 277 276 276 276
273 274 273 273 272 271 273 274 273 275 277 279 280 282 283 283 284 286 287 288 288 288 288 288 287 287 288 287 286 284 284 282 280 280 280 280 280 279 279 279 278 278 277
273 274 273 274 275 275 276 276 276 277 279 281 282 282 283 283 284 286 287 288 289 290 290 290 289 288 288 286 285 284 283 282 282 281 282 282 281 279 279 278 277 277 276
274 274 274 275 276 276 276 277 276 277 280 282 283 283 283 284 285 287 289 289 290 291 291 291 290 290 288 286 285 284 283 283 282 282 283 282 281 280 279 278 277 276 275
277 277 278 278 277 277 277 277 278 278 280 281 283 285 286 285 286 288 289 290 290 290 291 291 290 289 289 288 287 286 286 284 282 282 282 282 280 279 279 279 278 277 276
280 280 280 280 279 278 278 278 279 280 280 281 283 285 287 287 287 288 289 290 291 290 290 290 290 290 290 290 289 288 287 287 284 283 282 282 282 280 280 280 279 278 277
281 282 281 280 279 279 279 279 279 280 281 282 284 284 285 287 287 289 289 290 290 290 290 290 290 289 290 290 290 289 288 287 287 286 284 283 282 281 281 281 279 278 277
281 283 282 281 281 280 280 280 279 280 281 282 283 284 284 286 289 290 290 291 290 290 290 290 290 289 289 289 290 290 289 288 287 286 285 285 284 281 280 280 279 278 277
281 282 282 282 282 281 281 281 280 279 279 281 282 283 285 287 288 289 290 290 290 290 291 291 290 289 288 288 289 288 288 288 287 286 284 283 283 282 281 281 280 279 278
281 281 282 283 283 282 281 280 280 279 279 280 282 283 285 286 288 289 289 289 289 289 290 290 290 290 289 288 288 288 287 286 286 286 286 284 283 282 282 281 280 280 279
Height
5847 5847 5847 5847 5847 5846 5846 5845 5845 5844 5844 5843 5843 5842 5842 5841 5840 5839 5838 5837 5837 5836 5835 5835 5834 5834 5834 5833 5833 5832 5832 5831 5830 5830 5829 5828 5828 5827 5826 5825 5824 5824 5823
5845 5845 5844 5844 5844 5844 5844 5843 5842 5842 5841 5841 5840 5840 5839 5838 5837 5837 5836 5835 5834 5833 5832 5832 5831 5831 5830 5830 5829 5829 5828 5827 5826 5826 5825 5824 5824 5822 5822 5821 5820 5819 5819
5842 5842 5842 5842 5842 5842 5841 5841 5840 5839 5839 5838 5837 5837 5836 5835 5835 5834 5833 5832 5831 5830 5830 5829 5828 5827 5826 5826 5825 5825 5824 5823 5822 5821 5821 5820 5819 5818 5817 5816 5815 5815 5814
5839 5839 5839 5839 5839 5839 5838 5838 5837 5836 5836 5835 5834 5834 5833 5832 5831 5831 5830 5829 5828 5827 5826 5825 5824 5824 5823 5822 5821 5820 5819 5818 5817 5816 5815 5815 5814 5813 5812 5812 5811 5810 5810
5836 5836 5835 5835 5835 5835 5835 5834 5834 5833 5832 5832 5831 5831 5830 5829 5828 5827 5826 5825 5824 5823 5822 5821 5820 5820 5819 5818 5817 5816 5814 5813 5812 5811 5810 5809 5809 5808 5807 5806 5806 5805 5804
5832 5832 5832 5832 5832 5832 5832 5831 5831 5830 5829 5829 5828 5827 5826 5825 5824 5823 5822 5821 5820 5819 5818 5817 5816 5815 5814 5813 5812 5811 5810 5808 5807 5806 5804 5804 5803 5802 5801 5801 5800 5800 5800
5828 5828 5828 5828 5828 5828 5828 5828 5827 5827 5826 5825 5824 5823 5822 5821 5820 5819 5818 5817 5816 5815 5814 5813 5812 5811 5809 5808 5807 5806 5804 5803 5801 5800 5799 5798 5797 5796 5796 5795 5795 5795 5794
5824 5824 5824 5824 5824 5824 5824 5824 5823 5823 5822 5821 5820 5819 5819 5818 5817 5815 5814 5813 5812 5810 5809 5808 5807 5806 5804 5803 5802 5800 5799 5797 5796 5794 5793 5792 5791 5790 5790 5790 5789 5789 5789
5820 5820 5820 5820 5820 5820 5820 5820 5819 5818 5818 5817 5816 5815 5814 5813 5812 5811 5810 5809 5807 5806 5804 5803 5802 5800 5799 5798 5796 5794 5793 5791 5790 5789 5787 5786 5786 5785 5784 5784 5783 5783 5783
5816 5816 5815 5815 5815 5815 5815 5815 5814 5814 5813 5812 5811 5810 5810 5809 5807 5806 5805 5804 5802 5801 5799 5798 5796 5795 5794 5792 5790 5789 5787 5785 5784 5783 5782 5781 5780 5779 5778 5778 5777 5777 5777
5811 5811 5811 5811 5810 5810 5810 5810 5809 5809 5808 5807 5807 5806 5805 5803 5802 5801 5800 5798 5797 5795 5794 5792 5791 5789 5788 5786 5784 5783 5781 5779 5778 5776 5775 5774 5774 5773 5772 5771 5771 5770 5770
5805 5805 5805 5805 5805 5805 5805 5804 5804 5803 5803 5802 5801 5800 5799 5798 5797 5795 5794 5792 5791 5789 5788 5786 5785 5783 5781 5780 5778 5776 5774 5773 5771 5770 5769 5767 5767 5766 5766 5765 5764 5764 5763
5800 5799 5799 5799 5799 5799 5799 5798 5798 5797 5797 5796 5795 5795 5793 5792 5791 5789 5788 5786 5785 5783 5782 5780 5778 5776 5775 5773 5771 5769 5767 5766 5764 5763 5761 5760 5759 5759 5758 5757 5757 5756 5756
5793 5793 5793 5793 5793 5793 5793 5792 5792 5791 5790 5790 5789 5788 5787 5786 5784 5783 5781 5780 5778 5777 5775 5773 5771 5769 5768 5766 5764 5762 5760 5758 5757 5755 5754 5753 5752 5751 5750 5750 5749 5748 5748
5788 5787 5787 5787 5786 5786 5786 5786 5785 5785 5784 5783 5782 5781 5780 5779 5777 5776 5774 5773 5771 5769 5767 5765 5764 5762 5760 5758 5755 5754 5752 5750 5749 5747 5746 5745 5744 5743 5742 5742 5741 5741 5741
5781 5781 5781 5780 5779 5779 5779 5779 5778 5778 5777 5776 5775 5774 5773 5771 5770 5769 5767 5765 5764 5762 5760 5758 5756 5754 5751 5749 5747 5745 5743 5742 5740 5739 5737 5736 5735 5735 5734 5733 5733 5733 5732
5774 5774 5774 5773 5773 5772 5772 5772 5771 5771 5770 5769 5768 5767 5766 5764 5763 5761 5760 5758 5756 5754 5752 5749 5747 5745 5743 5741 5738 5736 5735 5733 5731 5730 5729 5728 5727 5726 5725 5725 5724 5724 5723
5767 5767 5767 5766 5766 5765 5765 5764 5764 5763 5762 5762 5761 5760 5758 5757 5755 5754 5752 5750 5748 5746 5743 5741 5739 5737 5734 5732 5730 5728 5726 5724 5722 5721 5720 5719 5718 5717 5716 5716 5715 5715 5714
5760 5760 5759 5759 5758 5758 5757 5757 5756 5755 5755 5754 5753 5751 5750 5749 5747 5746 5744 5742 5740 5737 5734 5732 5730 5727 5725 5723 5721 5719 5717 5716 5714 5713 5711 5710 5709 5708 5707 5706 5706 5706 5705
5752 5752 5752 5751 5751 5750 5750 5749 5748 5748 5747 5746 5745 5743 5742 5741 5739 5737 5735 5733 5731 5728 5726 5723 5721 5719 5716 5714 5712 5710 5708 5707 5705 5704 5703 5701 5700 5698 5697 5696 5696 5696 5696
5745 5744 5743 5743 5743 5742 5741 5741 5740 5739 5739 5738 5736 5735 5734 5732 5731 5729 5727 5725 5722 5720 5717 5715 5712 5710 5707 5705 5703 5701 5699 5697 5696 5695 5693 5692 5690 5689 5688 5687 5686 5686 5685
5737 5736 5735 5735 5734 5734 5733 5732 5732 5731 5730 5729 5728 5727 5725 5724 5722 5720 5718 5715 5713 5711 5708 5706 5704 5701 5699 5696 5694 5691 5689 5687 5686 5685 5684 5682 5681 5680 5678 5677 5676 5676 5675
5729 5728 5727 5726 5726 5725 5724 5723 5723 5722 5721 5720 5719 5718 5717 5715 5713 5711 5709 5706 5704 5701 5699 5697 5695 5693 5690 5687 5685 5683 5680 5678 5676 5675 5674 5672 5671 5670 5669 5668 5667 5666 5665
5721 5720 5719 5718 5717 5716 5715 5715 5714 5713 5712 5711 5710 5709 5708 5706 5704 5702 5700 5697 5695 5692 5690 5688 5685 5683 5681 5678 5676 5673 5671 5669 5667 5665 5664 5663 5661 5660 5659 5658 5657 5656 5656
5713 5711 5710 5709 5708 5707 5706 5705 5704 5703 5702 5702 5701 5699 5698 5697 5695 5693 5690 5688 5685 5683 5680 5678 5676 5673 5671 5669 5666 5663 5661 5659 5657 5655 5654 5653 5652 5651 5650 5649 5648 5647 5646
5704 5703 5701 5700 5699 5698 5697 5696 5695 5694 5693 5692 5691 5690 5689 5687 5685 5683 5680 5678 5675 5673 5670 5668 5665 5663 5661 5659 5656 5654 5652 5650 5648 5646 5645 5643 5642 5641 5640 5639 5638 5637 5636